Home > Weather > Koblenz > Past weeks

Flag for Germany Past Weather in Koblenz, Rhineland-Palatinate, Germany — Yesterday and Last 2 Weeks

Now
64 °F

Mild.


Feels Like: 64 °F
Forecast: 57 / 74 °F
Wind: 6 mph from Southwest

Location: Buechel

Current Time: Jul 29, 2016 at 9:50:36 PM

Latest Report: Jul 29, 2016 at 9:20 PM


Visibility: 5 mi

Pressure: 29.95 "Hg

Humidity: 78%

Dew Point: 57 °F

Location of KoblenzLocation

Past Weather in Koblenz — Graph

°F

Koblenz Temperature Yesterday

Maximum temperature yesterday: 66 °F (at 12:20 PM)
Minimum temperature yesterday: 59 °F (at 3:20 AM)
Average temperature yesterday: 63 °F

High & Low Weather Summary for the Past Weeks

 TemperatureHumidityPressure
High88 °F (Jul 20, 4:20 PM)100% (Jul 21, 7:20 AM)30.33 "Hg (Jul 21, 7:20 AM)
Low45 °F (Jul 15, 5:20 AM)38% (Jul 20, 4:20 PM)29.95 "Hg (Jul 20, 6:20 PM)
Average66 °F77%30.13 "Hg
* Reported Jul 14 8:20 PM — Jul 29 8:20 PM, Koblenz, Weather by CustomWeather, © 2016

Note: Actual official high and low records may vary slightly from our data, if they occured in-between our weather recording intervals... More about our weather records

Advertising

Koblenz Weather History for the Previous 24 Hours

Scroll right to see more
 ConditionsComfort  
Time TempWeatherWind HumidityBarometerVisibility
8:20 PM
Fri, Jul 29
68 °FMild.7 mph69%29.95 "HgN/A
7:20 PM68 °FMild.8 mph69%29.95 "HgN/A
6:20 PM70 °FMild.9 mph69%29.95 "HgN/A
5:20 PM68 °FMild.12 mph78%29.95 "Hg5 mi
4:20 PM64 °FMild.9 mph83%29.95 "Hg3 mi
3:20 PM64 °FMild.10 mph83%29.95 "Hg4 mi
2:20 PM70 °FMild.13 mph73%29.95 "Hg6 mi
1:20 PM68 °FMild.13 mph78%29.95 "Hg6 mi
12:20 PM66 °FMild.10 mph83%29.98 "Hg5 mi
12:02 PM64 °FBroken clouds.12 mph88%29.98 "HgN/A
11:20 AM63 °FPartly sunny.10 mph88%29.98 "Hg6 mi
10:20 AM59 °FSprinkles. Fog.8 mph94%29.98 "Hg3 mi
9:47 AM59 °FSprinkles. Fog.9 mph94%29.98 "Hg3 mi
9:20 AM59 °FPartly sunny.10 mph94%29.98 "Hg4 mi
8:20 AM57 °FBroken clouds.8 mph100%29.98 "Hg4 mi
6:20 AM57 °FPassing clouds.7 mph94%29.98 "HgN/A
5:20 AM57 °FPassing clouds.7 mph94%29.98 "HgN/A
4:20 AM57 °FCool.5 mph88%29.98 "Hg4 mi
3:20 AM57 °FCool.6 mph88%29.98 "Hg4 mi
2:20 AM57 °FCool.5 mph88%30.01 "Hg4 mi
1:20 AM57 °FCool.5 mph94%30.01 "Hg4 mi
12:20 AM59 °FCool.5 mph88%30.01 "Hg4 mi
11:20 PM
Thu, Jul 28
61 °FCool.5 mph88%30.01 "Hg4 mi
10:20 PM63 °FMild.6 mph88%30.01 "Hg4 mi
9:20 PM64 °FScattered clouds.6 mph83%30.01 "HgN/A
Weather by CustomWeather, © 2016

See weather overviewHow to use our weather pages